Вернуться в каталог

PRSS 1

АктивенНаукаSSO
NORAD 43530·PAYLOAD·🇵🇰 Pakistan

Запущен Jul 9, 2018 с Jiuquan Satellite Launch Center

Loading…

Ближайшие Пролёты (ближайшие 24 часа)

TLE

СвежийSource: Space-Track

Эпоха: Sep 14, 2026, 15:32 UTC

1 43530U 18056B   26257.64790624  .00000174  00000-0  28287-4 0  9998
2 43530  97.7740 323.0070 0001802  82.3605 277.7813 14.82099108441681

Отслеживайте PRSS 1 в реальном времени с AllMySat

Download on the App Store